This demonstration page uses our WeatherBlox Daily Observations layout. Learn more.

Left ArrowRight Arrow

Hourly Observations for September 30, 2017

Temp ( °F °C ) Dew Point ( °F °C ) Humidity (%) Winds ( mph kmh ) Pressure ( in mb ) Visibility ( mi km ) Precip ( " mm )
12:14 am 00:14 Clear 52 11 48 9 88 88 N 6 9 30.3 1026 10 16.0934 N/A
12:34 am 00:34 Clear 50 10 48 9 94 94 N 5 7 30.3 1026 10 16.0934 N/A
12:54 am 00:54 Clear 50 10 48 9 94 94 N 5 7 30.3 1026 10 16.0934 N/A
1:14 am 01:14 Clear 50 10 48 9 94 94 N 6 9 30.3 1026 10 16.0934 N/A
1:34 am 01:34 Clear 46 8 46 8 100 100 N 5 7 30.3 1026 10 16.0934 N/A
1:54 am 01:54 Clear 46 8 46 8 100 100 N 3 6 30.3 1026 10 16.0934 N/A
2:14 am 02:14 Clear 45 7 45 7 100 100 N 3 6 30.3 1026 10 16.0934 N/A
2:34 am 02:34 Clear 46 8 46 8 100 100 N 3 6 30.3 1026 10 16.0934 N/A
2:54 am 02:54 Clear 45 7 45 7 100 100 N 3 6 30.3 1026 10 16.0934 N/A
3:14 am 03:14 Clear 46 8 46 8 100 100 N 5 7 30.3 1026 10 16.0934 N/A
3:34 am 03:34 Clear 45 7 45 7 100 100 NNE 7 11 30.3 1026 10 16.0934 N/A
3:54 am 03:54 Clear 45 7 45 7 100 100 NNE 6 9 30.3 1026 10 16.0934 N/A
4:14 am 04:14 Clear 45 7 45 7 100 100 NNE 6 9 30.3 1026 10 16.0934 N/A
4:34 am 04:34 Clear 45 7 45 7 100 100 NNE 5 7 30.33 1027 10 16.0934 N/A
4:54 am 04:54 Clear 43 6 43 6 100 100 NNE 3 6 30.33 1027 10 16.0934 N/A
5:14 am 05:14 Clear 43 6 43 6 100 100 NNE 3 6 30.33 1027 10 16.0934 N/A
5:34 am 05:34 Clear 41 5 41 5 100 100 Calm 30.36 1028 10 16.0934 N/A
5:54 am 05:54 Clear 41 5 41 5 100 100 NNE 3 6 30.36 1028 10 16.0934 N/A
6:14 am 06:14 Clear 41 5 41 5 100 100 NNE 3 6 30.36 1028 10 16.0934 N/A
6:34 am 06:34 Clear 41 5 41 5 100 100 Calm 30.39 1029 10 16.0934 N/A
6:54 am 06:54 Clear 41 5 41 5 100 100 NNE 5 7 30.39 1029 10 16.0934 N/A
7:14 am 07:14 Clear 41 5 41 5 100 100 NNE 5 7 30.39 1029 10 16.0934 N/A
7:34 am 07:34 Clear 43 6 43 6 100 100 NNE 3 6 30.36 1028 10 16.0934 N/A
7:54 am 07:54 Sunny 41 5 41 5 100 100 NE 5 7 30.42 1030 10 16.0934 N/A
8:14 am 08:14 Sunny 43 6 43 6 100 100 NNE 3 6 30.42 1030 10 16.0934 N/A
8:34 am 08:34 Sunny 46 8 46 8 100 100 NE 3 6 30.39 1029 10 16.0934 N/A
8:53 am 08:53 Sunny 48 9 48 9 100 100 ENE 5 7 30.39 1029 10 16.0934 N/A
9:14 am 09:14 Sunny 50 10 50 10 100 100 ENE 7 11 30.39 1029 10 16.0934 N/A
9:34 am 09:34 Sunny 54 12 50 10 88 88 E 9 15 30.39 1029 10 16.0934 N/A
9:53 am 09:53 Sunny 54 12 50 10 88 88 ENE 9 15 30.39 1029 10 16.0934 N/A
10:14 am 10:14 Sunny 57 14 50 10 77 77 E 13 20 30.39 1029 10 16.0934 N/A
10:34 am 10:34 Sunny 59 15 50 10 72 72 E 9 15 30.42 1030 10 16.0934 N/A
10:53 am 10:53 Sunny 59 15 50 10 72 72 E 10 17 30.42 1030 10 16.0934 N/A
11:14 am 11:14 Sunny 61 16 50 10 68 68 E 12 19 30.39 1029 10 16.0934 N/A
11:34 am 11:34 Sunny 63 17 50 10 64 64 ENE 12 19 30.39 1029 10 16.0934 N/A
11:53 am 11:53 Sunny 63 17 48 9 59 59 E 7 11 30.39 1029 10 16.0934 N/A
12:14 pm 12:14 Sunny 64 18 48 9 56 56 NE 12 19 30.39 1029 10 16.0934 N/A
12:34 pm 12:34 Sunny 64 18 48 9 56 56 E 10 17 30.39 1029 10 16.0934 N/A
12:53 pm 12:53 Sunny 66 19 48 9 52 52 ENE 8 13 30.39 1029 10 16.0934 N/A
1:14 pm 13:14 Sunny 66 19 46 8 49 49 NE 9 15 30.36 1028 10 16.0934 N/A
1:34 pm 13:34 Sunny 68 20 46 8 46 46 ENE 7 11 30.36 1028 10 16.0934 N/A
1:53 pm 13:53 Sunny 68 20 46 8 46 46 E 8 13 30.36 1028 10 16.0934 N/A
2:14 pm 14:14 Sunny 68 20 46 8 46 46 ENE 12 19 30.36 1028 10 16.0934 N/A
2:34 pm 14:34 Sunny 68 20 45 7 43 43 ENE 7 11 30.33 1027 10 16.0934 N/A
2:53 pm 14:53 Sunny 68 20 45 7 43 43 E 9 15 30.33 1027 10 16.0934 N/A
3:14 pm 15:14 Sunny 70 21 45 7 40 40 NE 8 13 30.33 1027 10 16.0934 N/A
3:34 pm 15:34 Sunny 70 21 43 6 38 38 E 5 7 30.3 1026 10 16.0934 N/A
3:53 pm 15:53 Sunny 70 21 43 6 38 38 ENE 7 11 30.3 1026 10 16.0934 N/A
4:14 pm 16:14 Sunny 70 21 43 6 38 38 NE 9 15 30.3 1026 10 16.0934 N/A
4:34 pm 16:34 Sunny 70 21 43 6 38 38 E 10 17 30.3 1026 10 16.0934 N/A
4:53 pm 16:53 Sunny 70 21 43 6 38 38 E 7 11 30.3 1026 10 16.0934 N/A
5:14 pm 17:14 Sunny 70 21 43 6 38 38 NE 8 13 30.3 1026 10 16.0934 N/A
5:34 pm 17:34 Sunny 68 20 41 5 38 38 E 8 13 30.3 1026 10 16.0934 N/A
5:54 pm 17:54 Sunny 68 20 41 5 38 38 ENE 8 13 30.3 1026 10 16.0934 N/A
6:14 pm 18:14 Sunny 68 20 43 6 40 40 E 8 13 30.3 1026 10 16.0934 N/A
6:34 pm 18:34 Sunny 66 19 43 6 43 43 ENE 9 15 30.3 1026 10 16.0934 N/A
6:54 pm 18:54 Sunny 64 18 43 6 46 46 ENE 7 11 30.3 1026 10 16.0934 N/A
7:14 pm 19:14 Sunny 59 15 43 6 55 55 ENE 7 11 30.27 1025 10 16.0934 N/A
7:34 pm 19:34 Clear 57 14 43 6 59 59 ENE 5 7 30.3 1026 10 16.0934 N/A
7:54 pm 19:54 Clear 54 12 41 5 63 63 ENE 5 7 30.33 1027 10 16.0934 N/A
8:14 pm 20:14 Clear 52 11 41 5 67 67 NE 6 9 30.33 1027 10 16.0934 N/A
8:34 pm 20:34 Clear 50 10 43 6 76 76 Calm 30.33 1027 10 16.0934 N/A
8:54 pm 20:54 Clear 48 9 41 5 76 76 NE 3 6 30.33 1027 10 16.0934 N/A
9:14 pm 21:14 Clear 48 9 41 5 76 76 ENE 8 13 30.33 1027 10 16.0934 N/A
9:34 pm 21:34 Clear 48 9 43 6 82 82 ENE 8 13 30.33 1027 10 16.0934 N/A
9:54 pm 21:54 Clear 50 10 43 6 76 76 E 5 7 30.33 1027 10 16.0934 N/A
10:14 pm 22:14 Clear 48 9 43 6 82 82 E 5 7 30.33 1027 10 16.0934 N/A
10:34 pm 22:34 Clear 50 10 45 7 82 82 E 6 9 30.33 1027 10 16.0934 N/A
10:54 pm 22:54 Clear 48 9 43 6 82 82 E 6 9 30.33 1027 10 16.0934 N/A
11:14 pm 23:14 Clear 48 9 43 6 82 82 E 5 7 30.33 1027 10 16.0934 N/A
11:34 pm 23:34 Clear 48 9 43 6 82 82 E 6 9 30.33 1027 10 16.0934 N/A
11:54 pm 23:54 Clear 48 9 43 6 82 82 E 7 11 30.33 1027 10 16.0934 N/A

Powered by AerisWeather